Time,TemperatureF,DewpointF,PressureIn,WindDirection,WindDirectionDegrees,WindSpeedMPH,WindSpeedGustMPH,Humidity,HourlyPrecipIn,Conditions,Clouds,dailyrainin,SoftwareType,DateUTC
2013-03-27 00:05:00,28.1,21.2,29.95,SSW,199,0.0,3.0,75,0.00,,,0.00,Wunderground v.1.15,2013-03-27 06:05:00,
2013-03-27 00:10:00,28.1,21.2,29.95,SSW,199,0.0,3.0,75,0.00,,,0.00,Wunderground v.1.15,2013-03-27 06:10:00,
2013-03-27 00:20:00,28.1,21.2,29.95,SSW,200,0.0,3.0,75,0.00,,,0.00,Wunderground v.1.15,2013-03-27 06:20:00,
2013-03-27 00:25:00,28.1,21.2,29.96,SSW,200,0.0,3.0,75,0.00,,,0.00,Wunderground v.1.15,2013-03-27 06:25:00,
2013-03-27 00:35:00,28.4,21.8,29.94,SSW,200,0.0,3.0,76,0.00,,,0.00,Wunderground v.1.15,2013-03-27 06:35:00,
2013-03-27 00:44:00,28.6,22.0,29.92,SSW,200,0.0,3.0,76,0.00,,,0.00,Wunderground v.1.15,2013-03-27 06:44:00,
2013-03-27 00:50:00,28.8,21.9,29.92,SSW,200,0.0,3.0,75,0.00,,,0.00,Wunderground v.1.15,2013-03-27 06:50:00,
2013-03-27 00:55:00,28.8,21.9,29.92,SSW,200,0.0,3.0,75,0.00,,,0.00,Wunderground v.1.15,2013-03-27 06:55:00,
2013-03-27 01:05:00,28.9,21.7,29.92,SSW,200,0.0,3.0,74,0.00,,,0.00,Wunderground v.1.15,2013-03-27 07:05:00,
2013-03-27 01:10:00,28.9,21.7,29.92,SSW,200,0.0,3.0,74,0.00,,,0.00,Wunderground v.1.15,2013-03-27 07:10:00,
2013-03-27 01:20:00,28.7,21.1,29.92,SSW,200,0.0,3.0,73,0.00,,,0.00,Wunderground v.1.15,2013-03-27 07:20:00,
2013-03-27 01:30:00,28.5,20.9,29.92,SSW,200,0.0,3.0,73,0.00,,,0.00,Wunderground v.1.15,2013-03-27 07:30:00,
2013-03-27 01:35:00,28.3,20.7,29.92,SSW,200,0.0,3.0,73,0.00,,,0.00,Wunderground v.1.15,2013-03-27 07:35:00,
2013-03-27 01:45:00,28.0,20.5,29.93,SSW,200,0.0,3.0,73,0.00,,,0.00,Wunderground v.1.15,2013-03-27 07:45:00,
2013-03-27 01:50:00,27.8,19.9,29.93,SSW,200,0.0,3.0,72,0.00,,,0.00,Wunderground v.1.15,2013-03-27 07:50:00,
2013-03-27 01:55:00,27.5,20.0,29.93,SSW,200,0.0,3.0,73,0.00,,,0.00,Wunderground v.1.15,2013-03-27 07:55:00,
2013-03-27 02:04:00,27.1,19.6,29.94,SSW,200,0.0,3.0,73,0.00,,,0.00,Wunderground v.1.15,2013-03-27 08:04:00,
2013-03-27 02:09:00,26.9,19.4,29.94,SSW,200,0.0,3.0,73,0.00,,,0.00,Wunderground v.1.15,2013-03-27 08:09:00,
2013-03-27 02:15:00,26.8,19.3,29.93,SSW,200,0.0,3.0,73,0.00,,,0.00,Wunderground v.1.15,2013-03-27 08:15:00,
2013-03-27 02:20:00,26.7,19.5,29.93,SSW,200,0.0,3.0,74,0.00,,,0.00,Wunderground v.1.15,2013-03-27 08:20:00,
2013-03-27 02:25:00,26.7,19.5,29.93,SSW,200,0.0,3.0,74,0.00,,,0.00,Wunderground v.1.15,2013-03-27 08:25:00,
2013-03-27 02:35:00,26.6,19.4,29.93,SSW,200,0.0,3.0,74,0.00,,,0.00,Wunderground v.1.15,2013-03-27 08:35:00,
2013-03-27 02:45:00,26.4,19.5,29.93,SSW,200,0.0,3.0,75,0.00,,,0.00,Wunderground v.1.15,2013-03-27 08:45:00,
2013-03-27 02:50:00,26.3,19.5,29.94,SSW,200,0.0,3.0,75,0.00,,,0.00,Wunderground v.1.15,2013-03-27 08:50:00,
2013-03-27 03:00:00,26.2,19.4,29.93,SSW,200,0.0,3.0,75,0.00,,,0.00,Wunderground v.1.15,2013-03-27 09:00:00,
2013-03-27 03:05:00,26.0,19.2,29.95,SSW,200,0.0,3.0,75,0.00,,,0.00,Wunderground v.1.15,2013-03-27 09:05:00,
2013-03-27 03:15:00,25.8,19.0,29.95,SSW,200,0.0,3.0,75,0.00,,,0.00,Wunderground v.1.15,2013-03-27 09:15:00,
2013-03-27 03:25:00,25.6,18.8,29.95,SSW,200,0.0,3.0,75,0.00,,,0.00,Wunderground v.1.15,2013-03-27 09:25:00,
2013-03-27 03:30:00,25.4,18.6,29.97,SSW,200,0.0,3.0,75,0.00,,,0.00,Wunderground v.1.15,2013-03-27 09:30:00,
2013-03-27 03:40:00,25.2,18.4,29.96,SSW,200,0.0,3.0,75,0.00,,,0.00,Wunderground v.1.15,2013-03-27 09:40:00,
2013-03-27 03:45:00,25.0,18.5,29.96,SSW,200,0.0,3.0,76,0.00,,,0.00,Wunderground v.1.15,2013-03-27 09:45:00,
2013-03-27 03:55:00,24.7,18.2,29.96,SSW,200,0.0,3.0,76,0.00,,,0.00,Wunderground v.1.15,2013-03-27 09:55:00,
2013-03-27 04:05:00,24.5,18.0,29.96,SSW,200,0.0,3.0,76,0.00,,,0.00,Wunderground v.1.15,2013-03-27 10:05:00,
2013-03-27 04:10:00,24.4,17.9,29.97,SSW,200,0.0,3.0,76,0.00,,,0.00,Wunderground v.1.15,2013-03-27 10:10:00,
2013-03-27 04:20:00,24.3,18.1,29.98,SSW,200,0.0,3.0,77,0.00,,,0.00,Wunderground v.1.15,2013-03-27 10:20:00,
2013-03-27 04:25:00,24.2,18.0,29.98,SSW,200,0.0,3.0,77,0.00,,,0.00,Wunderground v.1.15,2013-03-27 10:25:00,
2013-03-27 04:35:00,24.0,17.8,29.98,SSW,200,0.0,3.0,77,0.00,,,0.00,Wunderground v.1.15,2013-03-27 10:35:00,
2013-03-27 04:40:00,23.9,17.7,29.98,SSW,200,0.0,3.0,77,0.00,,,0.00,Wunderground v.1.15,2013-03-27 10:40:00,
2013-03-27 04:50:00,23.6,17.4,29.98,SSW,200,0.0,3.0,77,0.00,,,0.00,Wunderground v.1.15,2013-03-27 10:50:00,
2013-03-27 05:00:00,23.4,17.3,29.99,SSW,200,0.0,3.0,77,0.00,,,0.00,Wunderground v.1.15,2013-03-27 11:00:00,
2013-03-27 05:05:00,23.2,17.1,29.99,SSW,200,0.0,3.0,77,0.00,,,0.00,Wunderground v.1.15,2013-03-27 11:05:00,
2013-03-27 05:15:00,22.8,17.0,30.00,SSW,200,0.0,3.0,78,0.00,,,0.00,Wunderground v.1.15,2013-03-27 11:15:00,
2013-03-27 05:20:00,22.7,16.9,30.00,SSW,200,0.0,3.0,78,0.00,,,0.00,Wunderground v.1.15,2013-03-27 11:20:00,
2013-03-27 05:25:00,22.6,17.1,30.01,SSW,200,0.0,3.0,79,0.00,,,0.00,Wunderground v.1.15,2013-03-27 11:25:00,
2013-03-27 05:35:00,22.5,17.0,30.02,SSW,200,0.0,3.0,79,0.00,,,0.00,Wunderground v.1.15,2013-03-27 11:35:00,
2013-03-27 05:40:00,22.6,17.4,30.02,SSW,200,0.0,3.0,80,0.00,,,0.00,Wunderground v.1.15,2013-03-27 11:40:00,
2013-03-27 05:49:00,22.9,17.9,30.02,SSW,200,0.0,3.0,81,0.00,,,0.00,Wunderground v.1.15,2013-03-27 11:49:00,
2013-03-27 05:55:00,23.0,18.0,30.03,SSW,200,0.0,3.0,81,0.00,,,0.00,Wunderground v.1.15,2013-03-27 11:55:00,
2013-03-27 06:05:00,23.3,18.3,30.05,SSW,200,0.0,3.0,81,0.00,,,0.00,Wunderground v.1.15,2013-03-27 12:05:00,
2013-03-27 06:10:00,23.4,18.4,30.05,SSW,200,0.0,3.0,81,0.00,,,0.00,Wunderground v.1.15,2013-03-27 12:10:00,
2013-03-27 06:15:00,23.5,18.5,30.03,SSW,200,0.0,3.0,81,0.00,,,0.00,Wunderground v.1.15,2013-03-27 12:15:00,
2013-03-27 06:25:00,23.7,18.7,30.04,SSW,200,0.0,3.0,81,0.00,,,0.00,Wunderground v.1.15,2013-03-27 12:25:00,
2013-03-27 06:30:00,23.8,18.8,30.03,SSW,200,0.0,3.0,81,0.00,,,0.00,Wunderground v.1.15,2013-03-27 12:30:00,
2013-03-27 06:35:00,23.8,18.8,30.03,SSW,200,0.0,3.0,81,0.00,,,0.00,Wunderground v.1.15,2013-03-27 12:35:00,
2013-03-27 06:40:00,23.8,18.8,30.03,SSW,200,0.0,3.0,81,0.00,,,0.00,Wunderground v.1.15,2013-03-27 12:40:00,
2013-03-27 06:45:00,23.8,18.8,30.03,SSW,200,0.0,3.0,81,0.00,,,0.00,Wunderground v.1.15,2013-03-27 12:45:00,
2013-03-27 06:55:00,23.7,18.4,30.03,SSW,200,0.0,3.0,80,0.00,,,0.00,Wunderground v.1.15,2013-03-27 12:55:00,
2013-03-27 07:05:00,23.5,18.2,30.06,SSW,200,0.0,3.0,80,0.00,,,0.00,Wunderground v.1.15,2013-03-27 13:05:00,
2013-03-27 07:10:00,23.5,18.2,30.06,SSW,200,0.0,3.0,80,0.00,,,0.00,Wunderground v.1.15,2013-03-27 13:10:00,
2013-03-27 07:20:00,23.3,18.0,30.08,SSW,200,0.0,3.0,80,0.00,,,0.00,Wunderground v.1.15,2013-03-27 13:20:00,
2013-03-27 07:25:00,23.3,18.0,30.08,SSW,200,0.0,3.0,80,0.00,,,0.00,Wunderground v.1.15,2013-03-27 13:25:00,
2013-03-27 07:35:00,23.3,18.3,30.09,SSW,200,0.0,3.0,81,0.00,,,0.00,Wunderground v.1.15,2013-03-27 13:35:00,
2013-03-27 07:45:00,23.4,18.4,30.09,SSW,200,0.0,3.0,81,0.00,,,0.00,Wunderground v.1.15,2013-03-27 13:45:00,
2013-03-27 07:55:00,23.7,18.7,30.07,SSW,200,0.0,3.0,81,0.00,,,0.00,Wunderground v.1.15,2013-03-27 13:55:00,
2013-03-27 08:00:00,24.0,19.3,30.08,SSW,200,0.0,3.0,82,0.00,,,0.00,Wunderground v.1.15,2013-03-27 14:00:00,
2013-03-27 08:05:00,24.4,19.7,30.12,SSW,200,0.0,3.0,82,0.00,,,0.00,Wunderground v.1.15,2013-03-27 14:05:00,
2013-03-27 08:15:00,25.5,21.1,30.11,SSW,200,0.0,3.0,83,0.00,,,0.00,Wunderground v.1.15,2013-03-27 14:15:00,
2013-03-27 08:25:00,26.5,21.7,30.09,SSW,200,0.0,3.0,82,0.00,,,0.00,Wunderground v.1.15,2013-03-27 14:25:00,
2013-03-27 08:35:00,27.6,22.8,30.10,SSW,200,0.0,3.0,82,0.00,,,0.00,Wunderground v.1.15,2013-03-27 14:35:00,
2013-03-27 08:40:00,28.2,23.1,30.10,SSW,200,0.0,3.0,81,0.00,,,0.00,Wunderground v.1.15,2013-03-27 14:40:00,
2013-03-27 08:50:00,29.1,24.0,30.08,SSW,200,0.0,3.0,81,0.00,,,0.00,Wunderground v.1.15,2013-03-27 14:50:00,
2013-03-27 08:55:00,29.6,24.2,30.08,SSW,200,0.0,3.0,80,0.00,,,0.00,Wunderground v.1.15,2013-03-27 14:55:00,
2013-03-27 09:05:00,32.0,25.3,30.08,SSW,200,0.0,3.0,76,0.00,,,0.00,Wunderground v.1.15,2013-03-27 15:05:00,
2013-03-27 09:10:00,33.0,25.3,30.08,SSW,200,0.0,3.0,73,0.00,,,0.00,Wunderground v.1.15,2013-03-27 15:10:00,
2013-03-27 09:20:00,34.4,25.3,30.07,South,190,0.0,3.0,69,0.00,,,0.00,Wunderground v.1.15,2013-03-27 15:20:00,
2013-03-27 09:30:00,38.0,25.7,30.03,SSW,192,0.0,3.0,61,0.00,,,0.00,Wunderground v.1.15,2013-03-27 15:30:00,
2013-03-27 09:40:00,39.8,25.8,30.02,SSW,192,0.0,3.0,57,0.00,,,0.00,Wunderground v.1.15,2013-03-27 15:40:00,
2013-03-27 09:45:00,40.2,26.2,30.02,SSW,194,0.0,3.0,57,0.00,,,0.00,Wunderground v.1.15,2013-03-27 15:45:00,
2013-03-27 09:55:00,41.0,25.6,30.02,WNW,302,1.0,3.0,54,0.00,,,0.00,Wunderground v.1.15,2013-03-27 15:55:00,
2013-03-27 10:00:00,41.6,25.7,30.00,NE,46,1.0,1.0,53,0.00,,,0.00,Wunderground v.1.15,2013-03-27 16:00:00,
2013-03-27 10:10:00,42.7,26.3,30.02,NE,46,0.0,3.0,52,0.00,,,0.00,Wunderground v.1.15,2013-03-27 16:10:00,
2013-03-27 10:19:00,43.8,26.3,30.02,North,355,1.0,1.0,50,0.00,,,0.00,Wunderground v.1.15,2013-03-27 16:19:00,
2013-03-27 10:25:00,44.3,27.3,30.02,East,90,1.0,3.0,51,0.00,,,0.00,Wunderground v.1.15,2013-03-27 16:25:00,
2013-03-27 10:35:00,44.4,26.4,30.02,East,88,1.0,3.0,49,0.00,,,0.00,Wunderground v.1.15,2013-03-27 16:35:00,
2013-03-27 10:40:00,45.2,27.2,30.01,East,88,1.0,3.0,49,0.00,,,0.00,Wunderground v.1.15,2013-03-27 16:40:00,
2013-03-27 10:45:00,45.7,27.6,30.01,NNE,19,1.0,3.0,49,0.00,,,0.00,Wunderground v.1.15,2013-03-27 16:45:00,
2013-03-27 10:55:00,45.9,26.8,30.01,ENE,77,1.0,3.0,47,0.00,,,0.00,Wunderground v.1.15,2013-03-27 16:55:00,
2013-03-27 11:05:00,46.3,26.6,30.01,ENE,65,1.0,3.0,46,0.00,,,0.00,Wunderground v.1.15,2013-03-27 17:05:00,
2013-03-27 11:10:00,46.5,26.8,30.01,South,184,1.0,3.0,46,0.00,,,0.00,Wunderground v.1.15,2013-03-27 17:10:00,
2013-03-27 11:20:00,47.2,27.5,30.01,North,355,2.0,2.0,46,0.00,,,0.00,Wunderground v.1.15,2013-03-27 17:20:00,
2013-03-27 11:30:00,47.1,27.4,30.01,NE,51,1.0,1.0,46,0.00,,,0.00,Wunderground v.1.15,2013-03-27 17:30:00,
2013-03-27 11:35:00,47.2,28.0,30.01,East,90,1.0,3.0,47,0.00,,,0.00,Wunderground v.1.15,2013-03-27 17:35:00,
2013-03-27 11:40:00,47.8,27.5,29.99,SW,236,1.0,1.0,45,0.00,,,0.00,Wunderground v.1.15,2013-03-27 17:40:00,
2013-03-27 11:50:00,48.4,27.5,29.99,NE,56,1.0,3.0,44,0.00,,,0.00,Wunderground v.1.15,2013-03-27 17:50:00,
2013-03-27 12:00:00,48.4,27.5,29.99,East,82,1.0,1.0,44,0.00,,,0.00,Wunderground v.1.15,2013-03-27 18:00:00,
2013-03-27 12:05:00,48.9,27.4,29.97,East,81,1.0,2.0,43,0.00,,,0.00,Wunderground v.1.15,2013-03-27 18:05:00,
2013-03-27 12:15:00,49.4,27.8,29.98,East,91,1.0,3.0,43,0.00,,,0.00,Wunderground v.1.15,2013-03-27 18:15:00,
2013-03-27 12:20:00,49.2,28.7,29.97,ENE,57,1.0,1.0,45,0.00,,,0.00,Wunderground v.1.15,2013-03-27 18:20:00,
2013-03-27 12:30:00,50.4,29.8,29.97,SW,222,1.0,3.0,45,0.00,,,0.00,Wunderground v.1.15,2013-03-27 18:30:00,
2013-03-27 12:35:00,50.0,29.5,29.97,SSE,167,1.0,3.0,45,0.00,,,0.00,Wunderground v.1.15,2013-03-27 18:35:00,
2013-03-27 12:45:00,49.8,28.2,29.97,ESE,103,1.0,6.0,43,0.00,,,0.00,Wunderground v.1.15,2013-03-27 18:45:00,
2013-03-27 12:55:00,50.2,28.0,29.97,NNE,22,1.0,3.0,42,0.00,,,0.00,Wunderground v.1.15,2013-03-27 18:55:00,
2013-03-27 13:00:00,50.7,30.1,29.95,SE,130,2.0,2.0,45,0.00,,,0.00,Wunderground v.1.15,2013-03-27 19:00:00,
2013-03-27 13:10:00,50.8,28.5,29.97,ENE,62,1.0,1.0,42,0.00,,,0.00,Wunderground v.1.15,2013-03-27 19:10:00,
2013-03-27 13:15:00,51.1,29.9,29.97,NE,53,1.0,3.0,44,0.00,,,0.00,Wunderground v.1.15,2013-03-27 19:15:00,
2013-03-27 13:25:00,51.6,31.5,29.96,ESE,102,1.0,3.0,46,0.00,,,0.00,Wunderground v.1.15,2013-03-27 19:25:00,
2013-03-27 13:35:00,51.7,29.9,29.96,ENE,73,0.0,3.0,43,0.00,,,0.00,Wunderground v.1.15,2013-03-27 19:35:00,
2013-03-27 13:45:00,51.2,28.9,29.96,ENE,71,0.0,3.0,42,0.00,,,0.00,Wunderground v.1.15,2013-03-27 19:45:00,
2013-03-27 13:50:00,51.4,29.1,29.96,SW,225,1.0,1.0,42,0.00,,,0.00,Wunderground v.1.15,2013-03-27 19:50:00,
2013-03-27 13:59:00,51.9,30.1,29.95,SSW,196,1.0,3.0,43,0.00,,,0.00,Wunderground v.1.15,2013-03-27 19:59:00,
2013-03-27 14:05:00,52.4,31.1,29.95,SSW,196,1.0,3.0,44,0.00,,,0.00,Wunderground v.1.15,2013-03-27 20:05:00,
2013-03-27 14:10:00,52.2,28.0,29.95,SSW,196,0.0,3.0,39,0.00,,,0.00,Wunderground v.1.15,2013-03-27 20:10:00,
2013-03-27 14:15:00,52.2,28.6,29.95,South,180,0.0,3.0,40,0.00,,,0.00,Wunderground v.1.15,2013-03-27 20:15:00,
2013-03-27 14:25:00,53.5,29.7,29.93,SW,218,2.0,6.0,40,0.00,,,0.00,Wunderground v.1.15,2013-03-27 20:25:00,
2013-03-27 14:35:00,53.9,30.7,29.92,SW,229,2.0,3.0,41,0.00,,,0.00,Wunderground v.1.15,2013-03-27 20:35:00,
2013-03-27 14:40:00,53.2,28.9,29.94,WSW,248,1.0,4.0,39,0.00,,,0.00,Wunderground v.1.15,2013-03-27 20:40:00,
2013-03-27 14:50:00,53.3,28.9,29.94,SW,225,1.0,3.0,39,0.00,,,0.00,Wunderground v.1.15,2013-03-27 20:50:00,
2013-03-27 15:00:00,53.7,28.7,29.92,West,269,2.0,2.0,38,0.00,,,0.00,Wunderground v.1.15,2013-03-27 21:00:00,
2013-03-27 15:10:00,53.8,28.1,29.94,SW,216,2.0,3.0,37,0.00,,,0.00,Wunderground v.1.15,2013-03-27 21:10:00,
2013-03-27 15:20:00,53.8,28.1,29.94,SW,225,1.0,5.0,37,0.00,,,0.00,Wunderground v.1.15,2013-03-27 21:20:00,
2013-03-27 15:30:00,53.9,28.8,29.93,SW,215,1.0,3.0,38,0.00,,,0.00,Wunderground v.1.15,2013-03-27 21:30:00,
2013-03-27 15:35:00,54.4,29.9,29.93,SSW,207,2.0,3.0,39,0.00,,,0.00,Wunderground v.1.15,2013-03-27 21:35:00,
2013-03-27 15:45:00,55.2,28.7,29.92,SSW,210,1.0,5.0,36,0.00,,,0.00,Wunderground v.1.15,2013-03-27 21:45:00,
2013-03-27 15:50:00,54.7,28.9,29.92,SSE,148,3.0,3.0,37,0.00,,,0.00,Wunderground v.1.15,2013-03-27 21:50:00,
2013-03-27 16:00:00,54.6,28.8,29.92,SSW,210,1.0,4.0,37,0.00,,,0.00,Wunderground v.1.15,2013-03-27 22:00:00,
2013-03-27 16:10:00,54.5,30.0,29.95,SW,233,1.0,3.0,39,0.00,,,0.00,Wunderground v.1.15,2013-03-27 22:10:00,
2013-03-27 16:15:00,54.3,28.6,29.95,SSW,196,2.0,4.0,37,0.00,,,0.00,Wunderground v.1.15,2013-03-27 22:15:00,
2013-03-27 16:20:00,53.3,27.7,29.95,SW,216,2.0,2.0,37,0.00,,,0.00,Wunderground v.1.15,2013-03-27 22:20:00,
2013-03-27 16:30:00,52.4,28.8,29.96,SE,138,1.0,1.0,40,0.00,,,0.00,Wunderground v.1.15,2013-03-27 22:30:00,
2013-03-27 16:35:00,52.2,28.0,29.97,SSE,157,1.0,3.0,39,0.00,,,0.00,Wunderground v.1.15,2013-03-27 22:35:00,
2013-03-27 16:45:00,51.5,28.6,29.97,South,182,4.0,5.0,41,0.00,,,0.00,Wunderground v.1.15,2013-03-27 22:45:00,
2013-03-27 16:50:00,52.1,27.9,29.97,South,186,3.0,5.0,39,0.00,,,0.00,Wunderground v.1.15,2013-03-27 22:50:00,
2013-03-27 17:00:00,51.4,27.2,29.97,SSE,158,3.0,3.0,39,0.00,,,0.00,Wunderground v.1.15,2013-03-27 23:00:00,
2013-03-27 17:10:00,51.0,28.1,29.97,South,184,1.0,3.0,41,0.00,,,0.00,Wunderground v.1.15,2013-03-27 23:10:00,
2013-03-27 17:15:00,51.0,28.1,29.97,SSW,213,2.0,5.0,41,0.00,,,0.00,Wunderground v.1.15,2013-03-27 23:15:00,
2013-03-27 17:25:00,51.1,27.6,29.98,SSW,213,3.0,6.0,40,0.00,,,0.00,Wunderground v.1.15,2013-03-27 23:25:00,
2013-03-27 17:30:00,51.1,28.2,29.97,South,184,3.0,3.0,41,0.00,,,0.00,Wunderground v.1.15,2013-03-27 23:30:00,
2013-03-27 17:40:00,50.8,27.9,29.98,South,176,2.0,2.0,41,0.00,,,0.00,Wunderground v.1.15,2013-03-27 23:40:00,
2013-03-27 17:50:00,50.3,28.1,30.00,South,185,2.0,2.0,42,0.00,,,0.00,Wunderground v.1.15,2013-03-27 23:50:00,
2013-03-27 17:55:00,50.2,28.0,29.99,SSE,161,2.0,3.0,42,0.00,,,0.00,Wunderground v.1.15,2013-03-27 23:55:00,
2013-03-27 18:04:00,49.8,27.6,29.99,SSE,166,1.0,3.0,42,0.00,,,0.00,Wunderground v.1.15,2013-03-28 00:04:00,
2013-03-27 18:15:00,49.3,27.2,30.01,SW,231,2.0,7.0,42,0.00,,,0.00,Wunderground v.1.15,2013-03-28 00:15:00,
2013-03-27 18:20:00,49.0,26.9,30.01,South,182,2.0,5.0,42,0.00,,,0.00,Wunderground v.1.15,2013-03-28 00:20:00,
2013-03-27 18:25:00,48.7,26.6,30.01,South,184,2.0,5.0,42,0.00,,,0.00,Wunderground v.1.15,2013-03-28 00:25:00,
2013-03-27 18:35:00,48.2,26.7,30.01,SSE,167,2.0,3.0,43,0.00,,,0.00,Wunderground v.1.15,2013-03-28 00:35:00,
2013-03-27 18:45:00,47.6,26.7,30.01,South,173,1.0,3.0,44,0.00,,,0.00,Wunderground v.1.15,2013-03-28 00:45:00,
2013-03-27 18:54:00,47.1,26.8,30.03,WSW,237,0.0,3.0,45,0.00,,,0.00,Wunderground v.1.15,2013-03-28 00:54:00,
2013-03-27 19:00:00,46.8,27.1,30.03,SSW,202,0.0,3.0,46,0.00,,,0.00,Wunderground v.1.15,2013-03-28 01:00:00,
2013-03-27 19:05:00,46.5,26.8,30.03,SSE,160,1.0,3.0,46,0.00,,,0.00,Wunderground v.1.15,2013-03-28 01:05:00,
2013-03-27 19:15:00,46.0,26.9,30.04,South,180,0.0,3.0,47,0.00,,,0.00,Wunderground v.1.15,2013-03-28 01:15:00,
2013-03-27 19:20:00,45.8,26.7,30.04,WSW,249,0.0,3.0,47,0.00,,,0.00,Wunderground v.1.15,2013-03-28 01:20:00,
2013-03-27 19:30:00,45.3,26.7,30.06,SE,136,0.0,3.0,48,0.00,,,0.00,Wunderground v.1.15,2013-03-28 01:30:00,
2013-03-27 19:40:00,44.8,26.3,30.07,SE,136,0.0,3.0,48,0.00,,,0.00,Wunderground v.1.15,2013-03-28 01:40:00,
2013-03-27 19:45:00,44.5,26.5,30.07,SW,221,0.0,3.0,49,0.00,,,0.00,Wunderground v.1.15,2013-03-28 01:45:00,
2013-03-27 19:55:00,44.0,26.0,30.08,SSE,150,0.0,3.0,49,0.00,,,0.00,Wunderground v.1.15,2013-03-28 01:55:00,
2013-03-27 20:05:00,43.4,26.0,30.05,South,169,0.0,3.0,50,0.00,,,0.00,Wunderground v.1.15,2013-03-28 02:05:00,
2013-03-27 20:15:00,42.9,26.0,30.05,South,169,0.0,0.0,51,0.00,,,0.00,Wunderground v.1.15,2013-03-28 02:15:00,
2013-03-27 20:20:00,42.7,25.8,30.05,South,169,0.0,0.0,51,0.00,,,0.00,Wunderground v.1.15,2013-03-28 02:20:00,
2013-03-27 20:30:00,42.4,26.0,30.06,SSE,168,0.0,0.0,52,0.00,,,0.00,Wunderground v.1.15,2013-03-28 02:30:00,
2013-03-27 20:35:00,42.3,25.4,30.06,SSE,168,0.0,0.0,51,0.00,,,0.00,Wunderground v.1.15,2013-03-28 02:35:00,
2013-03-27 20:45:00,41.9,26.0,30.07,South,169,0.0,0.0,53,0.00,,,0.00,Wunderground v.1.15,2013-03-28 02:45:00,
2013-03-27 20:55:00,41.4,25.5,30.08,South,170,0.0,0.0,53,0.00,,,0.00,Wunderground v.1.15,2013-03-28 02:55:00,
2013-03-27 21:04:00,41.1,25.7,30.00,SSE,155,0.0,0.0,54,0.00,,,0.00,Wunderground v.1.15,2013-03-28 03:04:00,
2013-03-27 21:10:00,40.9,25.1,30.00,SSE,155,0.0,0.0,53,0.00,,,0.00,Wunderground v.1.15,2013-03-28 03:10:00,
2013-03-27 21:20:00,40.6,25.2,30.01,SSE,155,0.0,0.0,54,0.00,,,0.00,Wunderground v.1.15,2013-03-28 03:20:00,
2013-03-27 21:25:00,40.5,25.6,30.01,SSE,155,0.0,0.0,55,0.00,,,0.00,Wunderground v.1.15,2013-03-28 03:25:00,
2013-03-27 21:30:00,40.3,25.8,30.01,SSE,155,0.0,0.0,56,0.00,,,0.00,Wunderground v.1.15,2013-03-28 03:30:00,
2013-03-27 21:39:00,40.1,26.1,30.01,SSE,155,0.0,0.0,57,0.00,,,0.00,Wunderground v.1.15,2013-03-28 03:39:00,
2013-03-27 21:45:00,39.9,26.3,30.02,SSE,155,0.0,0.0,58,0.00,,,0.00,Wunderground v.1.15,2013-03-28 03:45:00,
2013-03-27 21:54:00,39.7,26.5,30.02,SSE,155,0.0,0.0,59,0.00,,,0.00,Wunderground v.1.15,2013-03-28 03:54:00,
2013-03-27 21:59:00,39.5,26.8,30.02,SSE,155,0.0,0.0,60,0.00,,,0.00,Wunderground v.1.15,2013-03-28 03:59:00,
2013-03-27 22:05:00,39.4,26.7,30.00,SSE,155,0.0,0.0,60,0.00,,,0.00,Wunderground v.1.15,2013-03-28 04:05:00,
2013-03-27 22:10:00,39.3,27.0,30.00,SSE,155,0.0,0.0,61,0.00,,,0.00,Wunderground v.1.15,2013-03-28 04:10:00,
2013-03-27 22:14:00,39.1,26.8,30.01,SSE,155,0.0,0.0,61,0.00,,,0.00,Wunderground v.1.15,2013-03-28 04:14:00,
2013-03-27 22:20:00,38.9,26.6,30.00,SSE,155,0.0,2.0,61,0.00,,,0.00,Wunderground v.1.15,2013-03-28 04:20:00,
2013-03-27 22:25:00,38.8,26.9,30.00,SSE,155,0.0,2.0,62,0.00,,,0.00,Wunderground v.1.15,2013-03-28 04:25:00,
2013-03-27 22:35:00,38.6,26.7,30.00,SSE,151,0.0,2.0,62,0.00,,,0.00,Wunderground v.1.15,2013-03-28 04:35:00,
2013-03-27 22:45:00,38.2,26.7,30.00,SSE,151,0.0,2.0,63,0.00,,,0.00,Wunderground v.1.15,2013-03-28 04:45:00,
2013-03-27 22:55:00,37.9,26.8,30.00,SSW,198,1.0,1.0,64,0.00,,,0.00,Wunderground v.1.15,2013-03-28 04:55:00,
2013-03-27 23:00:00,37.8,26.7,30.00,South,187,2.0,2.0,64,0.00,,,0.00,Wunderground v.1.15,2013-03-28 05:00:00,
2013-03-27 23:05:00,38.0,26.9,29.99,SSW,213,3.0,9.0,64,0.00,,,0.00,Wunderground v.1.15,2013-03-28 05:05:00,
2013-03-27 23:15:00,38.7,27.2,29.97,SSW,202,3.0,4.0,63,0.00,,,0.00,Wunderground v.1.15,2013-03-28 05:15:00,
2013-03-27 23:20:00,38.8,26.9,29.97,SSE,160,2.0,3.0,62,0.00,,,0.00,Wunderground v.1.15,2013-03-28 05:20:00,
2013-03-27 23:29:00,39.3,27.0,29.97,South,169,4.0,4.0,61,0.00,,,0.00,Wunderground v.1.15,2013-03-28 05:29:00,
2013-03-27 23:35:00,39.3,27.0,29.97,SSE,150,3.0,4.0,61,0.00,,,0.00,Wunderground v.1.15,2013-03-28 05:35:00,
2013-03-27 23:45:00,39.3,26.6,29.97,SE,134,3.0,3.0,60,0.00,,,0.00,Wunderground v.1.15,2013-03-28 05:45:00,
2013-03-27 23:50:00,39.3,27.0,29.97,SSE,159,3.0,3.0,61,0.00,,,0.00,Wunderground v.1.15,2013-03-28 05:50:00,
2013-03-27 23:55:00,39.2,26.9,29.97,NW,321,2.0,3.0,61,0.00,,,0.00,Wunderground v.1.15,2013-03-28 05:55:00,